This demonstration page uses our WeatherBlox Daily Observations layout. Learn more.

Left ArrowRight Arrow

34.74481, -87.66753

Hourly Observations for June 23, 2018

Temp ( °F °C ) Dew Point ( °F °C ) Humidity (%) Winds ( mph kmh ) Pressure ( in mb ) Visibility ( mi km ) Precip ( " mm )
12:53 am 00:53 Clear 71 21.7 69 20.6 94 94 WSW 3 6 29.83 1010 10 16 0.00 0.00
1:53 am 01:53 Clear 70 21.1 69 20.6 97 97 S 3 6 29.81 1010 10 16 0.00 0.00
2:53 am 02:53 Partly Cloudy 71 21.7 69 20.6 94 94 SSW 3 6 29.81 1009 10 16 0.00 0.00
3:08 am 03:08 Mostly Clear 71 21.7 69 20.6 94 94 SSW 3 6 29.83 1010 10 16 0.00 0.00
3:53 am 03:53 Clear 70 21.1 69 20.6 97 97 SSE 5 7 29.81 1009 10 16 0.00 0.00
4:53 am 04:53 Clear 70 21.1 68 20 93 93 Calm 29.84 1010 9 14 0.00 0.00
5:40 am 05:40 Sunny with Mist and Fog 69 20.6 68 20 96 96 SE 5 7 29.83 1010 2 3 0.00 0.00
5:49 am 05:49 Sunny with Mist and Fog 70 21 68 20 94 94 SSE 3 6 29.83 1010 4 6 0.00 0.00
5:53 am 05:53 Sunny 69 20.6 68 20 96 96 SE 5 7 29.85 1011 8 13 0.00 0.00
6:26 am 06:26 Mostly Cloudy 71 21.7 70 21.1 96 96 SSE 3 6 29.85 1011 10 16 0.00 0.00
6:53 am 06:53 Cloudy 72 22.2 70 21.1 94 94 SSE 3 6 29.86 1011 10 16 0.00 0.00
7:53 am 07:53 Cloudy 73 22.8 70 21.1 90 90 SSW 8 13 29.89 1012 10 16 0.00 0.00
8:07 am 08:07 Cloudy 73 22.8 70 21.1 90 90 S 5 7 29.85 1011 10 16 0.00 0.00
8:22 am 08:22 Mostly Cloudy 74 23.3 71 21.7 91 91 SSW 6 9 29.88 1012 10 16 0.00 0.00
8:53 am 08:53 Sunny 76 24.4 72 22.2 88 88 SW 3 6 29.87 1012 10 16 0.00 0.00
9:32 am 09:32 Mostly Cloudy 78 25.6 71 21.7 79 79 S 7 11 29.88 1012 10 16 0.00 0.00
9:53 am 09:53 Cloudy 77 25 71 21.7 82 82 S 9 15 29.88 1012 10 16 0.00 0.00
10:26 am 10:26 Cloudy with Strong Thunderstorms 77 25 72 22.2 85 85 SW 15 24 29.91 1013 4 6 0.07 1.78
10:31 am 10:31 Cloudy with Strong Thunderstorms 75 23.9 72 22.2 90 90 SW 18 30 29.94 1014 2 3 0.22 5.59
10:43 am 10:43 Windy with Storms Likely 74 23.3 69 20.6 85 85 W 20 31 29.91 1013 3 5 0.38 9.65
10:53 am 10:53 Cloudy with Strong Thunderstorms 73 22.8 69 20.6 87 87 W 12 19 29.91 1013 9 14 0.40 10.16
11:10 am 11:10 Partly Cloudy 73 22.8 70 21.1 90 90 SSW 5 7 29.88 1012 10 16 0.01 0.25
11:17 am 11:17 Partly Cloudy with Thunderstorms 72 22.2 69 20.6 91 91 S 3 6 29.88 1012 10 16 0.01 0.25
11:32 am 11:32 Mostly Cloudy with Light Rain 73 22.8 70 21.1 90 90 Calm 29.91 1013 10 16 0.02 0.51
11:40 am 11:40 Mostly Cloudy with Nearby Thunderstorms 73 22.8 70 21.1 90 90 Calm 29.91 1013 10 16 0.03 0.76
11:53 am 11:53 Cloudy with Light Rain 73 22.8 71 21.7 94 94 S 6 9 29.92 1013 10 16 0.04 1.02
12:39 pm 12:39 Mostly Cloudy 75 23.9 72 22.2 90 90 S 10 17 29.88 1012 10 16 0.00 0.03
12:46 pm 12:46 Mostly Sunny 76 24.4 72 22.2 88 88 S 10 17 29.88 1012 10 16 0.00 0.03
12:53 pm 12:53 Mostly Sunny 76 24.4 72 22.2 88 88 S 10 17 29.90 1012 10 16 0.00 0.03
1:53 pm 13:53 Mostly Cloudy 79 26.1 72 22.2 79 79 SSW 10 17 29.90 1013 10 16 0.00 0.00
2:31 pm 14:31 Mostly Cloudy 81 27.2 73 22.8 77 77 SSW 10 17 29.88 1012 10 16 0.00 0.00
2:53 pm 14:53 Mostly Cloudy 83 28.3 74 23.3 74 74 SSW 15 24 29.87 1012 10 16 0.00 0.00
3:53 pm 15:53 Mostly Cloudy 84 28.9 75 23.9 74 74 WSW 10 17 29.86 1011 10 16 0.00 0.00
4:05 pm 16:05 Partly Cloudy 85 29.4 75 23.9 72 72 WSW 10 17 29.85 1011 10 16 0.00 0.00
4:13 pm 16:13 Mostly Cloudy 85 29.4 74 23.3 70 70 S 9 15 29.85 1011 10 16 0.00 0.00
4:51 pm 16:51 Partly Cloudy 82 28 75 24 79 79 SSW 10 17 29.85 1011 10 16 0.00 0.00
4:53 pm 16:53 Partly Cloudy 83 28.3 75 23.9 77 77 SSW 10 17 29.85 1011 10 16 0.00 0.00
5:04 pm 17:04 Mostly Cloudy with Thunderstorms 82 27.8 75 23.9 79 79 S 7 11 29.85 1011 10 16 0.00 0.03
5:25 pm 17:25 Cloudy with Nearby Thunderstorms 80 26.7 76 24.4 87 87 S 6 9 29.83 1010 10 16 0.01 0.25
5:39 pm 17:39 Mostly Cloudy with Thunderstorms 80 26.7 76 24.4 87 87 VRB 3 6 29.83 1010 10 16 0.02 0.51
5:53 pm 17:53 Partly Cloudy with Thunderstorms 79 26.1 72 22.2 79 79 SW 14 22 29.83 1010 10 16 0.02 0.51
6:06 pm 18:06 Sunny 77 25 69 20.6 77 77 SSW 13 20 29.83 1010 10 16 0.00 0.00
6:53 pm 18:53 Sunny 80 26.7 71 21.7 74 74 S 8 13 29.83 1010 10 16 0.00 0.00
7:53 pm 19:53 Sunny 79 26.1 75 23.9 88 88 S 6 9 29.85 1011 10 16 0.00 0.00
8:39 pm 20:39 Clear with Nearby Thunderstorms 79 26.1 74 23.3 85 85 S 9 15 29.85 1011 10 16 0.00 0.00
8:53 pm 20:53 Clear with Nearby Thunderstorms 79 26.1 74 23.3 85 85 S 8 13 29.87 1011 10 16 0.00 0.00
9:41 pm 21:41 Clear 79 26.1 74 23.3 85 85 SSW 8 13 29.88 1012 10 16 0.00 0.00
9:53 pm 21:53 Clear with Nearby Thunderstorms 78 25.6 74 23.3 87 87 SSW 8 13 29.88 1012 10 16 0.00 0.00
10:18 pm 22:18 Clear 78 25.6 74 23.3 87 87 SSW 5 7 29.88 1012 10 16 0.00 0.00
10:27 pm 22:27 Mostly Clear with Nearby Thunderstorms 78 25.6 73 22.8 85 85 SW 5 7 29.88 1012 10 16 0.00 0.00
10:42 pm 22:42 Partly Cloudy 78 25.6 73 22.8 85 85 S 6 9 29.91 1013 10 16 0.00 0.00
10:53 pm 22:53 Mostly Clear 78 25.6 73 22.8 85 85 S 6 9 29.91 1013 10 16 0.00 0.00
11:53 pm 23:53 Clear 77 25 71 21.7 82 82 SSW 6 9 29.89 1012 10 16 0.00 0.00

Powered by AerisWeather